Powrót do katalogu

COSMOS 1375 DEB

AktywnyLEO
NORAD 16209·DEBRIS·🇷🇺 Russia

Wystrzelony Jun 6, 1982 z Plesetsk Cosmodrome

Loading…

Następne Przeloty (najbliższe 24 godziny)

TLE

ŚwieżeSource: Space-Track

Epoka: Sep 14, 2026, 22:17 UTC

1 16209U 82055L   26257.92849632 -.00000085  00000-0 -59372-5 0  9999
2 16209  65.8355  52.0933 0024813 309.0867 131.9876 13.71428275 52737

Śledź COSMOS 1375 DEB w czasie rzeczywistym z AllMySat

Download on the App Store